| time (UTC) | temp F | wind direction | speed knots | gust knots | rain 1hr in | rain 24hr in | rain mn in | humidity % | barometer mb |
| 20260510103735 | 70 | 336 | 2.6 | 8.7 | 0.00 | 0.00 | 0.00 | 60 | 1009.6 |
| 20260510103235 | 70 | 340 | 3.5 | 8.7 | 0.00 | 0.00 | 0.00 | 59 | 1009.7 |
| 20260510102234 | 70 | 74 | 2.6 | 8.7 | 0.00 | 0.00 | 0.00 | 59 | 1009.7 |
| 20260510101730 | 70 | 63 | 1.7 | 6.1 | 0.00 | 0.00 | 0.00 | 62 | 1009.7 |
| 20260510101233 | 69 | 32 | 2.6 | 6.1 | 0.00 | 0.00 | 0.00 | 61 | 1009.8 |
| 20260510100713 | 69 | 304 | 2.6 | 6.1 | 0.00 | 0.00 | 0.00 | 62 | 1009.8 |
| 20260510100214 | 69 | 317 | 2.6 | 6.1 | 0.00 | 0.00 | 0.00 | 61 | 1009.9 |
| 20260510095712 | 69 | 19 | 2.6 | 7.0 | 0.00 | 0.00 | 0.00 | 61 | 1010.0 |
| 20260510095213 | 69 | 315 | 2.6 | 7.0 | 0.00 | 0.00 | 0.00 | 63 | 1010.0 |
| 20260510094713 | 69 | 83 | 2.6 | 5.2 | 0.00 | 0.00 | 0.00 | 63 | 1010.0 |
| 20260510094213 | 68 | 0 | 2.6 | 6.1 | 0.00 | 0.00 | 0.00 | 63 | 1010.0 |
| 20260510093713 | 68 | 30 | 2.6 | 7.8 | 0.00 | 0.00 | 0.00 | 63 | 1010.1 |
| 20260510093211 | 68 | 332 | 2.6 | 7.8 | 0.00 | 0.00 | 0.00 | 64 | 1010.1 |
| 20260510092713 | 68 | 243 | 2.6 | 7.8 | 0.00 | 0.00 | 0.00 | 64 | 1010.3 |
| 20260510092212 | 68 | 355 | 2.6 | 7.8 | 0.00 | 0.00 | 0.00 | 64 | 1010.3 |
| 20260510091213 | 67 | 23 | 1.7 | 5.2 | 0.00 | 0.00 | 0.00 | 66 | 1010.3 |
| 20260510090713 | 66 | 69 | 1.7 | 4.3 | 0.00 | 0.00 | 0.00 | 67 | 1010.4 |
| 20260510090213 | 65 | 0 | 1.7 | 6.1 | 0.00 | 0.00 | 0.00 | 69 | 1010.4 |
| 20260510085712 | 65 | 9 | 1.7 | 6.1 | 0.00 | 0.00 | 0.00 | 70 | 1010.4 |
| 20260510085210 | 64 | 16 | 1.7 | 5.2 | 0.00 | 0.00 | 0.00 | 70 | 1010.4 |
| 20260510084210 | 63 | 323 | 1.7 | 7.0 | 0.00 | 0.00 | 0.00 | 72 | 1010.4 |
| 20260510083709 | 63 | 27 | 1.7 | 7.0 | 0.00 | 0.00 | 0.00 | 71 | 1010.5 |
| 20260510083206 | 63 | 315 | 1.7 | 7.8 | 0.00 | 0.00 | 0.00 | 72 | 1010.5 |
| 20260510082706 | 63 | 24 | 2.6 | 7.8 | 0.00 | 0.00 | 0.00 | 71 | 1010.6 |
| 20260510082217 | 62 | 329 | 2.6 | 7.0 | 0.00 | 0.00 | 0.00 | 71 | 1010.6 |
| 20260510081704 | 62 | 22 | 2.6 | 5.2 | 0.00 | 0.00 | 0.00 | 73 | 1010.6 |
| 20260510081204 | 62 | 328 | 2.6 | 5.2 | 0.00 | 0.00 | 0.00 | 71 | 1010.6 |
| 20260510080204 | 61 | 12 | 1.7 | 4.3 | 0.00 | 0.00 | 0.00 | 75 | 1010.6 |
| 20260510075704 | 61 | 47 | 1.7 | 4.3 | 0.00 | 0.00 | 0.00 | 75 | 1010.7 |
| 20260510075204 | 60 | 15 | 1.7 | 4.3 | 0.00 | 0.00 | 0.00 | 75 | 1010.7 |
| 20260510074705 | 60 | 31 | 2.6 | 4.3 | 0.00 | 0.00 | 0.00 | 74 | 1010.7 |
| 20260510074204 | 60 | 312 | 1.7 | 6.1 | 0.00 | 0.00 | 0.00 | 75 | 1010.8 |
| 20260510073704 | 60 | 306 | 1.7 | 6.1 | 0.00 | 0.00 | 0.00 | 75 | 1010.9 |
| 20260510073203 | 60 | 22 | 1.7 | 4.3 | 0.00 | 0.00 | 0.00 | 75 | 1011.0 |
| 20260510072703 | 59 | 262 | 1.7 | 4.3 | 0.00 | 0.00 | 0.00 | 76 | 1011.0 |
| 20260510072203 | 59 | 96 | 1.7 | 4.3 | 0.00 | 0.00 | 0.00 | 77 | 1011.0 |
| 20260510071705 | 59 | 313 | 1.7 | 4.3 | 0.00 | 0.00 | 0.00 | 77 | 1011.0 |
| 20260510071204 | 58 | 314 | 1.7 | 4.3 | 0.00 | 0.00 | 0.00 | 77 | 1011.0 |
| 20260510070704 | 58 | 21 | 1.7 | 4.3 | 0.00 | 0.00 | 0.00 | 77 | 1010.9 |
| 20260510065704 | 57 | 19 | 1.7 | 3.5 | 0.00 | 0.00 | 0.00 | 78 | 1011.2 |
| 20260510064205 | 57 | 349 | 0.9 | 3.5 | 0.00 | 0.00 | 0.00 | 80 | 1011.1 |
| 20260510063200 | 56 | 314 | 0.9 | 3.5 | 0.00 | 0.00 | 0.00 | 83 | 1011.0 |
| 20260510062701 | 55 | 0 | 0.9 | 3.5 | 0.00 | 0.00 | 0.00 | 84 | 1011.0 |
| 20260510062201 | 55 | 313 | 0.9 | 2.6 | 0.00 | 0.00 | 0.00 | 85 | 1011.0 |
| 20260510061700 | 54 | 311 | 0.9 | 3.5 | 0.00 | 0.00 | 0.00 | 86 | 1011.1 |
| 20260510061200 | 53 | 308 | 0.9 | 3.5 | 0.00 | 0.00 | 0.00 | 86 | 1011.1 |
| 20260510054655 | 51 | 25 | 0.9 | 2.6 | 0.00 | 0.00 | 0.00 | 89 | 1011.2 |
| 20260510054154 | 51 | 30 | 0.9 | 3.5 | 0.00 | 0.00 | 0.00 | 89 | 1011.2 |
| 20260510053652 | 50 | 26 | 0.9 | 3.5 | 0.00 | 0.00 | 0.00 | 89 | 1011.1 |
| 20260510053151 | 50 | 22 | 1.7 | 3.5 | 0.00 | 0.00 | 0.00 | 89 | 1011.1 |
| 20260510052650 | 50 | 28 | 1.7 | 3.5 | 0.00 | 0.00 | 0.00 | 90 | 1011.1 |
| 20260510052149 | 49 | 24 | 1.7 | 3.5 | 0.00 | 0.00 | 0.00 | 90 | 1011.2 |
| 20260510051649 | 49 | 19 | 1.7 | 3.5 | 0.00 | 0.00 | 0.00 | 90 | 1011.2 |
| 20260510051150 | 49 | 28 | 1.7 | 3.5 | 0.00 | 0.00 | 0.00 | 90 | 1011.2 |
| 20260510050650 | 49 | 9 | 0.9 | 2.6 | 0.00 | 0.00 | 0.00 | 90 | 1011.2 |
| 20260510045646 | 48 | 11 | 0.9 | 1.7 | 0.00 | 0.00 | 0.00 | 90 | 1011.3 |
| 20260510045146 | 48 | 10 | 0.9 | 1.7 | 0.00 | 0.00 | 0.00 | 90 | 1011.2 |
| 20260510044145 | 48 | 11 | 0.0 | 0.9 | 0.00 | 0.00 | 0.00 | 90 | 1011.3 |
| 20260510043645 | 48 | 11 | 0.0 | 0.9 | 0.00 | 0.00 | 0.00 | 90 | 1011.3 |
| 20260510043146 | 48 | 11 | 0.0 | 0.9 | 0.00 | 0.00 | 0.00 | 90 | 1011.3 |
| 20260510042645 | 48 | 11 | 0.0 | 0.9 | 0.00 | 0.00 | 0.00 | 90 | 1011.3 |
| 20260510042146 | 48 | 11 | 0.0 | 1.7 | 0.00 | 0.00 | 0.00 | 90 | 1011.3 |
| 20260510041642 | 48 | 11 | 0.9 | 1.7 | 0.00 | 0.00 | 0.00 | 90 | 1011.3 |
| 20260510040142 | 48 | 11 | 0.9 | 1.7 | 0.00 | 0.00 | 0.00 | 90 | 1011.6 |
| 20260510035641 | 48 | 9 | 0.9 | 1.7 | 0.00 | 0.00 | 0.00 | 90 | 1011.6 |
| 20260510035142 | 48 | 9 | 0.9 | 2.6 | 0.00 | 0.00 | 0.00 | 90 | 1011.6 |
| 20260510034642 | 48 | 9 | 0.9 | 2.6 | 0.00 | 0.00 | 0.00 | 90 | 1011.6 |
| 20260510034141 | 48 | 331 | 0.9 | 1.7 | 0.00 | 0.00 | 0.00 | 90 | 1011.7 |
| 20260510033642 | 48 | 325 | 0.9 | 1.7 | 0.00 | 0.00 | 0.00 | 90 | 1011.7 |
| 20260510033137 | 48 | 325 | 0.9 | 1.7 | 0.00 | 0.00 | 0.00 | 90 | 1011.7 |
| 20260510032137 | 48 | 323 | 0.9 | 1.7 | 0.00 | 0.00 | 0.00 | 90 | 1011.8 |
| 20260510031638 | 48 | 0 | 0.9 | 1.7 | 0.00 | 0.00 | 0.00 | 90 | 1011.8 |
| 20260510031137 | 48 | 9 | 0.9 | 1.7 | 0.00 | 0.00 | 0.00 | 90 | 1011.9 |
| 20260510030636 | 48 | 0 | 0.9 | 2.6 | 0.00 | 0.00 | 0.00 | 90 | 1011.8 |
| 20260510025636 | 48 | 325 | 0.9 | 1.7 | 0.00 | 0.00 | 0.00 | 89 | 1011.8 |
| 20260510024636 | 49 | 323 | 0.9 | 2.6 | 0.00 | 0.00 | 0.00 | 90 | 1011.9 |
| 20260510023635 | 49 | 355 | 1.7 | 3.5 | 0.00 | 0.00 | 0.00 | 89 | 1012.1 |
| 20260510023135 | 49 | 25 | 0.9 | 2.6 | 0.00 | 0.00 | 0.00 | 89 | 1012.2 |
| 20260510022133 | 49 | 12 | 1.7 | 2.6 | 0.00 | 0.00 | 0.00 | 89 | 1012.2 |
| 20260510021632 | 49 | 323 | 0.9 | 2.6 | 0.00 | 0.00 | 0.00 | 89 | 1012.2 |
| 20260510021129 | 49 | 338 | 0.9 | 1.7 | 0.00 | 0.00 | 0.00 | 89 | 1012.3 |
| 20260510020623 | 49 | 327 | 0.0 | 0.9 | 0.00 | 0.00 | 0.00 | 89 | 1012.4 |
| 20260510015611 | 49 | 327 | 0.0 | 0.9 | 0.00 | 0.00 | 0.00 | 89 | 1012.4 |
| 20260510015106 | 49 | 327 | 0.0 | 0.9 | 0.00 | 0.00 | 0.00 | 89 | 1012.4 |
| 20260510014603 | 49 | 327 | 0.0 | 1.7 | 0.00 | 0.00 | 0.00 | 89 | 1012.4 |
| 20260510014103 | 49 | 327 | 0.9 | 1.7 | 0.00 | 0.00 | 0.00 | 89 | 1012.4 |
| 20260510013603 | 49 | 327 | 0.9 | 1.7 | 0.00 | 0.00 | 0.00 | 89 | 1012.5 |
| 20260510013103 | 49 | 327 | 0.9 | 1.7 | 0.00 | 0.00 | 0.00 | 89 | 1012.4 |
| 20260510012603 | 49 | 327 | 0.0 | 1.7 | 0.00 | 0.00 | 0.00 | 89 | 1012.5 |
| 20260510012103 | 49 | 327 | 0.0 | 0.9 | 0.00 | 0.00 | 0.00 | 89 | 1012.5 |
| 20260510011603 | 50 | 327 | 0.0 | 0.9 | 0.00 | 0.00 | 0.00 | 89 | 1012.4 |
| 20260510011103 | 50 | 327 | 0.0 | 1.7 | 0.00 | 0.00 | 0.00 | 88 | 1012.5 |
| 20260510010603 | 50 | 327 | 0.9 | 1.7 | 0.00 | 0.00 | 0.00 | 89 | 1012.6 |
| 20260510004602 | 50 | 319 | 0.0 | 1.7 | 0.00 | 0.00 | 0.00 | 89 | 1012.7 |
| 20260510003602 | 50 | 319 | 0.9 | 1.7 | 0.00 | 0.00 | 0.00 | 88 | 1012.7 |
| 20260510003102 | 50 | 319 | 0.9 | 1.7 | 0.00 | 0.00 | 0.00 | 88 | 1012.7 |
| 20260510002055 | 50 | 319 | 0.9 | 1.7 | 0.00 | 0.00 | 0.00 | 88 | 1012.8 |
| 20260510001549 | 50 | 319 | 0.9 | 1.7 | 0.00 | 0.00 | 0.00 | 88 | 1012.9 |
| 20260510001043 | 50 | 319 | 0.9 | 1.7 | 0.00 | 0.00 | 0.00 | 88 | 1012.9 |
| 20260510000042 | 51 | 317 | 0.9 | 1.7 | 0.00 | 0.00 | 0.00 | 88 | 1012.9 |
| 20260509235541 | 51 | 317 | 0.9 | 1.7 | 0.00 | 0.00 | 0.00 | 87 | 1012.8 |
| 20260509235041 | 51 | 317 | 0.9 | 2.6 | 0.00 | 0.00 | 0.00 | 87 | 1012.9 |
| 20260509234541 | 51 | 319 | 0.9 | 2.6 | 0.00 | 0.00 | 0.00 | 87 | 1012.9 |
| 20260509234037 | 51 | 320 | 0.9 | 2.6 | 0.00 | 0.00 | 0.00 | 87 | 1013.0 |
| 20260509233535 | 51 | 327 | 0.9 | 3.5 | 0.00 | 0.00 | 0.00 | 86 | 1013.0 |
| 20260509233035 | 51 | 319 | 0.9 | 3.5 | 0.00 | 0.00 | 0.00 | 86 | 1013.0 |
| 20260509232535 | 52 | 311 | 0.9 | 3.5 | 0.00 | 0.00 | 0.00 | 86 | 1013.0 |
| 20260509232036 | 52 | 350 | 0.9 | 3.5 | 0.00 | 0.00 | 0.00 | 85 | 1013.0 |
| 20260509231535 | 53 | 350 | 1.7 | 3.5 | 0.00 | 0.00 | 0.00 | 84 | 1013.1 |
| 20260509231035 | 53 | 21 | 0.9 | 2.6 | 0.00 | 0.00 | 0.00 | 83 | 1013.1 |
| 20260509230535 | 53 | 22 | 0.9 | 2.6 | 0.00 | 0.00 | 0.00 | 82 | 1013.1 |
| 20260509230035 | 54 | 336 | 0.9 | 3.5 | 0.00 | 0.00 | 0.00 | 82 | 1013.1 |
| 20260509225533 | 54 | 23 | 0.9 | 3.5 | 0.00 | 0.00 | 0.00 | 81 | 1013.1 |
| 20260509224533 | 55 | 32 | 0.9 | 3.5 | 0.00 | 0.00 | 0.00 | 80 | 1013.2 |
| 20260509224032 | 55 | 0 | 0.9 | 2.6 | 0.00 | 0.00 | 0.00 | 79 | 1013.2 |
| 20260509223531 | 55 | 5 | 0.9 | 2.6 | 0.00 | 0.00 | 0.00 | 78 | 1013.2 |
| 20260509222527 | 56 | 351 | 0.9 | 2.6 | 0.00 | 0.00 | 0.00 | 75 | 1013.2 |
| 20260509222027 | 57 | 351 | 0.9 | 2.6 | 0.00 | 0.00 | 0.00 | 73 | 1013.3 |
| 20260509221525 | 58 | 27 | 0.9 | 3.5 | 0.00 | 0.00 | 0.00 | 71 | 1013.3 |
| 20260509221023 | 59 | 55 | 1.7 | 3.5 | 0.00 | 0.00 | 0.00 | 71 | 1013.2 |
| 20260509215518 | 59 | 46 | 1.7 | 4.3 | 0.00 | 0.00 | 0.00 | 70 | 1013.3 |
| 20260509215016 | 59 | 51 | 1.7 | 3.5 | 0.00 | 0.00 | 0.00 | 70 | 1013.3 |
| 20260509214516 | 59 | 61 | 1.7 | 3.5 | 0.00 | 0.00 | 0.00 | 70 | 1013.4 |
| 20260509214016 | 60 | 71 | 1.7 | 3.5 | 0.00 | 0.00 | 0.00 | 70 | 1013.5 |
| 20260509213514 | 60 | 51 | 1.7 | 5.2 | 0.00 | 0.00 | 0.00 | 70 | 1013.5 |
| 20260509213012 | 60 | 51 | 1.7 | 5.2 | 0.00 | 0.00 | 0.00 | 70 | 1013.4 |
| 20260509212511 | 59 | 42 | 1.7 | 4.3 | 0.00 | 0.00 | 0.00 | 70 | 1013.4 |
| 20260509212012 | 59 | 40 | 1.7 | 4.3 | 0.00 | 0.00 | 0.00 | 71 | 1013.5 |
| 20260509211512 | 59 | 58 | 1.7 | 4.3 | 0.00 | 0.00 | 0.00 | 72 | 1013.5 |
| 20260509211012 | 58 | 55 | 1.7 | 4.3 | 0.00 | 0.00 | 0.00 | 72 | 1013.4 |
| 20260509210510 | 58 | 48 | 0.9 | 3.5 | 0.00 | 0.00 | 0.00 | 73 | 1013.6 |
| 20260509205010 | 56 | 9 | 0.9 | 2.6 | 0.00 | 0.00 | 0.00 | 76 | 1013.5 |
| 20260509204510 | 56 | 0 | 0.9 | 1.7 | 0.00 | 0.00 | 0.00 | 76 | 1013.5 |
| 20260509204009 | 56 | 0 | 0.9 | 1.7 | 0.00 | 0.00 | 0.00 | 75 | 1013.5 |
| 20260509203510 | 57 | 0 | 0.9 | 1.7 | 0.00 | 0.00 | 0.00 | 75 | 1013.5 |
| 20260509202506 | 57 | 0 | 0.9 | 1.7 | 0.00 | 0.00 | 0.00 | 75 | 1013.6 |
| 20260509202005 | 57 | 0 | 0.9 | 1.7 | 0.00 | 0.00 | 0.00 | 74 | 1013.6 |
| 20260509201506 | 58 | 0 | 0.9 | 1.7 | 0.00 | 0.00 | 0.00 | 74 | 1013.6 |
| 20260509200506 | 58 | 10 | 0.9 | 1.7 | 0.00 | 0.00 | 0.00 | 73 | 1013.5 |
| 20260509200008 | 58 | 9 | 0.9 | 2.6 | 0.00 | 0.00 | 0.00 | 73 | 1013.5 |
| 20260509195506 | 58 | 19 | 0.9 | 2.6 | 0.00 | 0.00 | 0.00 | 72 | 1013.5 |
| 20260509194506 | 59 | 13 | 0.9 | 1.7 | 0.00 | 0.00 | 0.00 | 72 | 1013.4 |
| 20260509194007 | 60 | 14 | 0.9 | 1.7 | 0.00 | 0.00 | 0.00 | 72 | 1013.4 |
| 20260509193508 | 60 | 14 | 0.9 | 1.7 | 0.00 | 0.00 | 0.00 | 72 | 1013.4 |
| 20260509193007 | 60 | 14 | 0.9 | 1.7 | 0.00 | 0.00 | 0.00 | 71 | 1013.4 |
| 20260509192002 | 61 | 13 | 0.9 | 1.7 | 0.00 | 0.00 | 0.00 | 70 | 1013.3 |
| 20260509191504 | 62 | 13 | 0.9 | 1.7 | 0.00 | 0.00 | 0.00 | 70 | 1013.4 |
| 20260509190502 | 63 | 13 | 0.9 | 1.7 | 0.00 | 0.00 | 0.00 | 68 | 1013.4 |
| 20260509185957 | 63 | 13 | 0.9 | 1.7 | 0.00 | 0.00 | 0.00 | 68 | 1013.5 |
| 20260509185458 | 64 | 13 | 0.9 | 1.7 | 0.00 | 0.00 | 0.00 | 66 | 1013.4 |
| 20260509184955 | 64 | 16 | 0.9 | 1.7 | 0.00 | 0.00 | 0.00 | 65 | 1013.4 |
| 20260509183951 | 65 | 18 | 0.9 | 1.7 | 0.00 | 0.00 | 0.00 | 63 | 1013.3 |
| 20260509183451 | 66 | 52 | 0.9 | 1.7 | 0.00 | 0.00 | 0.00 | 62 | 1013.4 |
| 20260509182949 | 66 | 52 | 0.9 | 1.7 | 0.00 | 0.00 | 0.00 | 62 | 1013.3 |
| 20260509182447 | 66 | 52 | 0.9 | 1.7 | 0.00 | 0.00 | 0.00 | 60 | 1013.2 |
| 20260509181446 | 67 | 52 | 0.0 | 1.7 | 0.00 | 0.00 | 0.00 | 58 | 1013.1 |
| 20260509180446 | 68 | 52 | 0.9 | 2.6 | 0.00 | 0.00 | 0.00 | 54 | 1013.2 |
| 20260509175945 | 68 | 52 | 1.7 | 4.3 | 0.00 | 0.00 | 0.00 | 53 | 1013.2 |
| 20260509175446 | 69 | 44 | 1.7 | 4.3 | 0.00 | 0.00 | 0.00 | 52 | 1013.0 |
| 20260509174946 | 69 | 55 | 0.9 | 3.5 | 0.00 | 0.00 | 0.00 | 54 | 1013.1 |
| 20260509174445 | 69 | 54 | 0.9 | 3.5 | 0.00 | 0.00 | 0.00 | 52 | 1013.0 |
| 20260509173937 | 69 | 63 | 0.9 | 3.5 | 0.00 | 0.00 | 0.00 | 53 | 1013.0 |
| 20260509173435 | 69 | 90 | 1.7 | 3.5 | 0.00 | 0.00 | 0.00 | 52 | 1013.0 |
| 20260509172936 | 69 | 92 | 1.7 | 2.6 | 0.00 | 0.00 | 0.00 | 51 | 1013.2 |
| 20260509172436 | 69 | 97 | 1.7 | 3.5 | 0.00 | 0.00 | 0.00 | 51 | 1013.3 |
| 20260509171933 | 69 | 101 | 1.7 | 5.2 | 0.00 | 0.00 | 0.00 | 50 | 1013.2 |
| 20260509171433 | 69 | 47 | 2.6 | 5.2 | 0.00 | 0.00 | 0.00 | 49 | 1013.1 |
| 20260509170934 | 69 | 77 | 2.6 | 5.2 | 0.00 | 0.00 | 0.00 | 49 | 1013.0 |
| 20260509170433 | 69 | 59 | 2.6 | 7.0 | 0.00 | 0.00 | 0.00 | 50 | 1013.0 |
| 20260509165934 | 69 | 17 | 1.7 | 7.0 | 0.00 | 0.00 | 0.00 | 50 | 1013.0 |
| 20260509165433 | 70 | 94 | 1.7 | 6.1 | 0.00 | 0.00 | 0.00 | 48 | 1013.0 |
| 20260509164432 | 70 | 70 | 3.5 | 7.0 | 0.00 | 0.00 | 0.00 | 47 | 1013.1 |
| 20260509163932 | 70 | 55 | 2.6 | 7.0 | 0.00 | 0.00 | 0.00 | 47 | 1013.0 |
| 20260509163433 | 70 | 69 | 1.7 | 7.0 | 0.00 | 0.00 | 0.00 | 48 | 1013.0 |
| 20260509162932 | 70 | 321 | 1.7 | 3.5 | 0.00 | 0.00 | 0.00 | 49 | 1013.1 |
| 20260509162431 | 70 | 331 | 1.7 | 3.5 | 0.00 | 0.00 | 0.00 | 48 | 1013.1 |
| 20260509161925 | 70 | 317 | 1.7 | 3.5 | 0.00 | 0.00 | 0.00 | 48 | 1013.1 |
| 20260509161419 | 70 | 51 | 2.6 | 5.2 | 0.00 | 0.00 | 0.00 | 47 | 1013.3 |
| 20260509160913 | 70 | 24 | 3.5 | 7.8 | 0.00 | 0.00 | 0.00 | 46 | 1013.3 |
| 20260509160407 | 71 | 19 | 3.5 | 7.8 | 0.00 | 0.00 | 0.00 | 47 | 1013.3 |
| 20260509155906 | 71 | 34 | 3.5 | 7.8 | 0.00 | 0.00 | 0.00 | 47 | 1013.4 |
| 20260509155406 | 71 | 355 | 4.3 | 8.7 | 0.00 | 0.00 | 0.00 | 46 | 1013.3 |
| 20260509154405 | 73 | 0 | 2.6 | 7.8 | 0.00 | 0.00 | 0.00 | 45 | 1013.4 |
| 20260509153405 | 73 | 232 | 0.9 | 3.5 | 0.00 | 0.00 | 0.00 | 46 | 1013.5 |
| 20260509152405 | 71 | 187 | 0.9 | 3.5 | 0.00 | 0.00 | 0.00 | 50 | 1013.6 |
| 20260509151405 | 70 | 159 | 0.9 | 2.6 | 0.00 | 0.00 | 0.00 | 50 | 1013.9 |
| 20260509150905 | 70 | 76 | 1.7 | 4.3 | 0.00 | 0.00 | 0.00 | 50 | 1013.9 |
| 20260509150404 | 70 | 126 | 1.7 | 6.1 | 0.00 | 0.00 | 0.00 | 49 | 1013.9 |
| 20260509145906 | 70 | 328 | 1.7 | 7.0 | 0.00 | 0.00 | 0.00 | 49 | 1013.9 |
| 20260509144857 | 71 | 60 | 2.6 | 7.0 | 0.00 | 0.00 | 0.00 | 47 | 1013.9 |
| 20260509144351 | 71 | 115 | 2.6 | 7.8 | 0.00 | 0.00 | 0.00 | 48 | 1013.9 |
| 20260509143847 | 71 | 34 | 2.6 | 8.7 | 0.00 | 0.00 | 0.00 | 48 | 1013.9 |
| 20260509143339 | 71 | 38 | 2.6 | 8.7 | 0.00 | 0.00 | 0.00 | 47 | 1014.0 |
| 20260509142837 | 71 | 28 | 1.7 | 4.3 | 0.00 | 0.00 | 0.00 | 48 | 1013.9 |
| 20260509141838 | 71 | 315 | 1.7 | 4.3 | 0.00 | 0.00 | 0.00 | 46 | 1014.1 |
| 20260509141337 | 71 | 323 | 2.6 | 4.3 | 0.00 | 0.00 | 0.00 | 46 | 1014.1 |
| 20260509140840 | 71 | 48 | 2.6 | 6.1 | 0.00 | 0.00 | 0.00 | 47 | 1014.2 |
| 20260509140337 | 71 | 96 | 2.6 | 6.1 | 0.00 | 0.00 | 0.00 | 48 | 1014.1 |
| 20260509135837 | 71 | 336 | 1.7 | 7.0 | 0.00 | 0.00 | 0.00 | 47 | 1014.2 |
| 20260509135337 | 71 | 13 | 3.5 | 7.8 | 0.00 | 0.00 | 0.00 | 47 | 1014.2 |
| 20260509134837 | 71 | 11 | 3.5 | 7.8 | 0.00 | 0.00 | 0.00 | 46 | 1014.3 |
| 20260509133837 | 72 | 331 | 2.6 | 7.0 | 0.00 | 0.00 | 0.00 | 45 | 1014.5 |
| 20260509133337 | 72 | 325 | 2.6 | 7.0 | 0.00 | 0.00 | 0.00 | 46 | 1014.5 |
| 20260509132837 | 72 | 67 | 2.6 | 7.0 | 0.00 | 0.00 | 0.00 | 46 | 1014.5 |
| 20260509132337 | 71 | 21 | 1.7 | 4.3 | 0.00 | 0.00 | 0.00 | 48 | 1014.6 |
| 20260509131837 | 71 | 319 | 2.6 | 4.3 | 0.00 | 0.00 | 0.00 | 47 | 1014.6 |
| 20260509131335 | 71 | 304 | 1.7 | 5.2 | 0.00 | 0.00 | 0.00 | 48 | 1014.7 |
| 20260509130835 | 71 | 76 | 1.7 | 7.8 | 0.00 | 0.00 | 0.00 | 47 | 1014.8 |
| 20260509130335 | 71 | 311 | 2.6 | 7.8 | 0.00 | 0.00 | 0.00 | 46 | 1014.9 |
| 20260509125835 | 71 | 326 | 2.6 | 7.8 | 0.00 | 0.00 | 0.00 | 46 | 1014.9 |
| 20260509125333 | 71 | 317 | 2.6 | 7.8 | 0.00 | 0.00 | 0.00 | 47 | 1014.9 |
| 20260509124332 | 71 | 296 | 2.6 | 6.1 | 0.00 | 0.00 | 0.00 | 47 | 1014.9 |
| 20260509123832 | 71 | 321 | 2.6 | 6.1 | 0.00 | 0.00 | 0.00 | 46 | 1014.9 |
| 20260509123332 | 71 | 289 | 1.7 | 7.0 | 0.00 | 0.00 | 0.00 | 47 | 1015.0 |
| 20260509122333 | 70 | 21 | 2.6 | 8.7 | 0.00 | 0.00 | 0.00 | 49 | 1015.1 |
| 20260509121832 | 70 | 27 | 2.6 | 8.7 | 0.00 | 0.00 | 0.00 | 48 | 1015.1 |
| 20260509120832 | 70 | 310 | 1.7 | 4.3 | 0.00 | 0.00 | 0.00 | 48 | 1015.4 |
| 20260509120333 | 70 | 11 | 2.6 | 6.1 | 0.00 | 0.00 | 0.00 | 49 | 1015.4 |
| 20260509115833 | 69 | 5 | 2.6 | 6.1 | 0.00 | 0.00 | 0.00 | 49 | 1015.6 |
| 20260509115332 | 69 | 35 | 2.6 | 7.8 | 0.00 | 0.00 | 0.00 | 48 | 1015.6 |
| 20260509114332 | 69 | 103 | 3.5 | 8.7 | 0.00 | 0.00 | 0.00 | 47 | 1015.6 |
| 20260509113833 | 69 | 294 | 2.6 | 8.7 | 0.00 | 0.00 | 0.00 | 48 | 1015.7 |
| 20260509113332 | 69 | 80 | 2.6 | 7.0 | 0.00 | 0.00 | 0.00 | 47 | 1015.7 |
| 20260509112332 | 69 | 35 | 3.5 | 7.8 | 0.00 | 0.00 | 0.00 | 47 | 1015.8 |
| 20260509111832 | 69 | 103 | 2.6 | 5.2 | 0.00 | 0.00 | 0.00 | 50 | 1015.8 |
| 20260509111333 | 68 | 53 | 2.6 | 7.0 | 0.00 | 0.00 | 0.00 | 51 | 1015.9 |
| 20260509110833 | 68 | 15 | 3.5 | 7.8 | 0.00 | 0.00 | 0.00 | 49 | 1015.9 |
| 20260509110332 | 68 | 42 | 2.6 | 7.8 | 0.00 | 0.00 | 0.00 | 49 | 1016.0 |
| 20260509105831 | 68 | 34 | 2.6 | 7.8 | 0.00 | 0.00 | 0.00 | 51 | 1016.0 |
| 20260509105332 | 68 | 308 | 3.5 | 8.7 | 0.00 | 0.00 | 0.00 | 50 | 1016.1 |
| 20260509104332 | 67 | 71 | 3.5 | 9.6 | 0.00 | 0.00 | 0.00 | 50 | 1016.2 |